Regional Weather Roundup
Issued by NWS

Home | Current Version | Previous Version | Graphics & Text | Print | Product List | Glossary On
Versions: 1 2 3 4 5 6 7 8 9 10 11 12 13 14 15 16 17 18 19 20 21 22 23 24 25 26 27 28 29 30 31 32 33 34 35 36 37 38 39 40 41 42 43 44 45 46 47 48 49 50
000
ASUS43 KLOT 281004
RWRIL

ILLINOIS REGIONAL WEATHER ROUNDUP
NATIONAL WEATHER SERVICE CHICAGO/ROMEOVILLE IL
500 AM CDT SUN AUG 28 2016

NOTE: "FAIR" INDICATES FEW OR NO CLOUDS BELOW 12,000 FEET WITH NO
SIGNIFICANT WEATHER AND/OR OBSTRUCTIONS TO VISIBILITY.

* THESE STATIONS ARE NOT UNDER NWS QUALITY CONTROL. THEY ALSO MAY NOT
  REPORT WEATHER SUCH AS PRECIPITATION OR FOG.

ILZ001-002-007-009-015-016-024-281100-
NORTHWEST ILLINOIS

CITY           SKY/WX    TMP DP  RH WIND       PRES   REMARKS
MOLINE         PTCLDY    69  67  93 E3        30.11S FOG
STERLING*      FOG       68  68 100 CALM      30.13R VSB 3/4
SAVANNA*       PTCLDY    67  66  99 CALM      30.13S FOG
$$

ILZ003-004-008-010-011-017-018-281100-
NORTH CENTRAL ILLINOIS

CITY           SKY/WX    TMP DP  RH WIND       PRES   REMARKS
ROCKFORD       CLOUDY    68  66  93 E3        30.14S
FREEPORT*      FOG       62  62  99 CALM      30.16S VSB 1/2
ROCHELLE*      FOG       66  66 100 CALM      30.14S VSB 1/4
$$

ILZ005-006-012>014-019>023-281100-
NORTHEAST ILLINOIS

CITY           SKY/WX    TMP DP  RH WIND       PRES   REMARKS
CHICAGO-OHARE  PTCLDY    72  68  87 N6        30.14R
CHICAGO-MIDWAY PTCLDY    75  69  81 N5        30.14R
AURORA         CLEAR     67  66  97 CALM      30.14R
LANSING*       PTCLDY    71  71 100 W3        30.14S
JOLIET*        PTCLDY    71  70  99 N3        30.14R FOG
WAUKEGAN       CLOUDY    69  68  96 E3        30.15R FOG
DUPAGE AIRPORT CLEAR     68  66  93 N3        30.13S
KANKAKEE*      CLOUDY    72  70  93 CALM      30.14S
WHEELING       CLEAR     70  69  97 CALM      30.14S
MORRIS*        CLEAR     71  70  96 CALM      30.12R
ROMEOVILLE*    PTCLDY    69  69 100 CALM      30.14R FOG
$$

LMZ740>746-281100-
SOUTHERN LAKE MICHIGAN

STATION/POSITION SKY/WX   TEMP    WIND        PRES    VSBY  WAVE
                          AIR SEA DIR/SP/G                  HT/PER
                          (F)     (DEG/KT/KT) (MB)    (MI)  (FT/S)
WILMETTE HARBOR            71 70  340/  6/ 14   N/A           0
HARRISON CRIB              77     320/  6/  6   N/A
BURNHAM HARBOR             72      10/  6       N/A
CALUMET HARBOR             74     210/  2/  2 1019.6R
BURNS HARBOR               74     190/  6/  9 1020.7R
MICHIGAN CITY              75     170/  7/  7   N/A
MICHIGAN CITY 6N           75 76  180/  4/  6   N/A           0
ST. JOSEPH                 75 75  210/  2/  4 1019.8R         1
$$

ILZ025>027-034>036-040-047-049-050-058-095>099-281100-
WEST-CENTRAL ILLINOIS

CITY           SKY/WX    TMP DP  RH WIND       PRES   REMARKS
QUINCY         CLEAR     71  71 100 CALM      30.10S
MACOMB*        CLEAR     68  68  99 CALM      30.13S
JACKSONVILLE*  CLOUDY    72  71  96 E3        30.11S FOG
PITTSFIELD*    PTCLDY    70  70  99 CALM      30.11F FOG
$$

ILZ028>032-037-038-041>044-048-051>054-059>061-281100-
CENTRAL ILLINOIS

CITY           SKY/WX    TMP DP  RH WIND       PRES   REMARKS
PONTIAC        MOCLDY    71  71 100 CALM      30.15R
BLOOMINGTON    CLOUDY    72  70  93 SW6       30.15R
DECATUR        PTCLDY    69  67  93 E5        30.13S
PEORIA         CLEAR     72  72 100 CALM      30.12R
LACON*         CLEAR     70  69  97 CALM      30.12R FOG
LINCOLN*       CLOUDY    73  72  99 CALM      30.13R
SPRINGFIELD    TSTM      73  67  81 NE6       30.13R VSB 1/2
TAYLORVILLE    CLEAR     71  71  99 CALM      30.12S
$$

ILZ033-039-045-046-055>057-062-063-281100-
EAST-CENTRAL ILLINOIS

CITY           SKY/WX    TMP DP  RH WIND       PRES   REMARKS
CHAMPAIGN      CLEAR     69  67  93 E3        30.14R
RANTOUL*       PTCLDY    73  71  94 CALM      30.14S
MATTOON        CLEAR     71  69  93 N3        30.13R
PARIS*         CLEAR     69  69 100 CALM      30.15R FOG
$$

ILZ079-100>102-281100-
SOUTHWEST ILLINOIS

CITY           SKY/WX    TMP DP  RH WIND       PRES   REMARKS
ALTON          FOG       69  68  99 CALM      30.11S VSB 1
BELLEVILLE     FOG       71  71 100 E1        30.10R VSB 3/4
CAHOKIA*       CLEAR     71  69  93 CALM      30.10S
SPARTA*        PTCLDY    73  72  98 CALM      30.11S
$$

ILZ064>066-069>071-074>076-080>082-084>086-088>090-092>094-281100-
SOUTH-CENTRAL ILLINOIS

CITY           SKY/WX    TMP DP  RH WIND       PRES   REMARKS
CARBONDALE     FOG       70  69  97 CALM      30.11R VSB 1/4
EFFINGHAM*     CLEAR     69  69 100 E5        30.14R FOG
MARION         FOG       73  73 100 CALM      30.12R VSB 1/4
MT. VERNON     CLEAR     70  64  83 CALM      30.12S
CENTRALIA*     FOG       70  70 100 CALM      30.11R VSB 1/2
SALEM*         MOCLDY    71  69  94 CALM      30.12S FOG
METROPOLIS*    CLEAR     72  72  99 CALM      30.11R FOG
$$

ILZ067-068-072-073-078-083-087-091-281100-
SOUTHEAST ILLINOIS

CITY           SKY/WX    TMP DP  RH WIND       PRES   REMARKS
LAWRENCEVILLE  CLEAR     72  72 100 CALM      30.13R FOG
FLORA*         FOG       71  70  98 CALM      30.12S VSB 3/4
FAIRFIELD*     CLEAR     71  71  99 CALM      30.11R FOG
HARRISBURG*    CLOUDY    71  71 100 CALM      30.12R FOG
ROBINSON*      FOG       66  66 100 CALM      30.14R VSB 1/4
CARMI*         CLEAR     72  72 100 CALM      30.10S FOG
$$

ABBREVIATIONS USED IN REMARKS
   TC - TEMPERATURE IN CELSIUS
  WCI - WIND CHILL INDEX
   HX - HEAT INDEX
  VSB - VISIBILITY
$$





USA.gov is the U.S. government's official web portal to all federal, state and local government web resources and services.